View from above orbital plane
|
View from above satellite
|
Ground track
|
The orbit data is extracted from the following two-line orbital elements,
1 26932U 01043D 21023.15799431 -.00000056 00000-0 10318-4 0 9996
2 26932 67.0571 299.7290 0008542 281.5965 78.4177 14.30347886 8470
Epoch (UTC): | 23 January 2021 03:47:30 |
Eccentricity: | 0.0008542 |
inclination: | 67.0571° |
perigee height: | 784 km |
apogee height: | 796 km |
right ascension of ascending node: | 299.7290° |
argument of perigee: | 281.5965° |
revolutions per day: | 14.30347886 |
mean anomaly at epoch: | 78.4177° |
orbit number at epoch: | 847 |
The dashed part of the orbit path shows where the satellite is in the earth's shadow,
|
|